Weather observations for the past three days for
Savannah-Hilton Head International Airport
Imperial (Metric)
Date Time (edt) Wind (mph) Vis. (mi.) Weather Sky Cond. Temperature (ºF) Relative Humidity Wind Chill (°F) Heat Index (°F) Pressure Precipitation (in)
Air Dwpt 6 hour altimeter (in) sea level (mb) 1 hr 3 hr 6 hr
Max. Min.
12 12:53 Vrbl 3 10.00 Mostly Cloudy SCT025 BKN075 90 75 62% 100 30.04 1017.2
12 11:53 N 3 10.00 Mostly Cloudy SCT025 BKN075 88 75 66% 98 30.05 1017.5
12 10:53 NE 6 10.00 Mostly Cloudy FEW025 BKN075 87.1 75.9 70% 98 30.05 1017.4
12 09:53 NE 6 10.00 Mostly Cloudy FEW025 BKN075 84.9 75 72% 93 30.04 1017.1
12 08:53 NE 5 10.00 Mostly Cloudy BKN075 82 75 79% 89 30.02 1016.6
12 07:53 N 5 10.00 Partly Cloudy FEW170 SCT250 81 73.9 81 77 79% 86 30 1015.7
12 06:53 NW 5 10.00 Mostly Cloudy SCT170 BKN250 78.1 73.9 87% 81 29.97 1014.7
12 05:53 N 5 10.00 A Few Clouds FEW090 FEW250 77 73.9 90% 78 29.96 1014.4
12 04:53 N 8 10.00 Fair CLR 78.1 73.9 87% 81 29.95 1014.1
12 03:53 N 5 10.00 Mostly Cloudy BKN080 78.1 73.9 87% 81 29.96 1014.4
12 02:53 N 7 10.00 Fair CLR 79 73.9 85% 83 29.96 1014.6
12 01:53 N 5 10.00 A Few Clouds FEW075 79 72 90 79 79% 82 29.98 1015.0
12 00:53 N 5 10.00 A Few Clouds FEW070 80.1 71.1 74% 84 29.97 1014.7
11 23:53 SW 3 10.00 A Few Clouds FEW050 FEW250 81 71.1 72% 85 29.96 1014.3
11 22:53 W 3 10.00 Fair CLR 81 70 69% 84 29.95 1013.9
11 21:53 W 5 10.00 A Few Clouds FEW250 81 71.1 72% 85 29.95 1014.0
11 20:53 NW 3 10.00 Partly Cloudy SCT250 84.9 71.1 63% 90 29.95 1013.9
11 19:53 Calm 10.00 Partly Cloudy SCT250 90 68 93.9 90 48% 94 29.94 1013.7
11 18:53 E 3 10.00 Partly Cloudy FEW055 SCT250 91 69.1 49% 96 29.92 1013.1
11 17:53 Calm 10.00 Mostly Cloudy FEW050 BKN250 91.9 64.9 41% 94 29.91 1012.8
11 16:53 NE 3 10.00 Mostly Cloudy SCT055 BKN200 91.9 68 46% 96 29.92 1013.1
11 15:53 Vrbl 6 10.00 Mostly Cloudy SCT055 BKN200 93 68 44% 97 29.93 1013.4
11 14:53 N 10 10.00 Mostly Cloudy SCT050 BKN250 91.9 68 46% 96 29.93 1013.3
11 13:53 N 6 10.00 Mostly Cloudy SCT048 BKN250 91.9 68 93 77 46% 96 29.92 1013.1
11 12:53 W 6 10.00 Mostly Cloudy SCT048 BKN250 91 68 47% 95 29.94 1013.7
11 11:53 Vrbl 6 10.00 Mostly Cloudy FEW040 BKN250 89.1 68 50% 93 29.95 1014.2
11 10:53 N 6 10.00 Partly Cloudy SCT250 87.1 69.1 55% 91 29.95 1014.0
11 09:53 NW 6 10.00 Partly Cloudy SCT250 82 68 63% 85 29.94 1013.8
11 08:53 NW 6 10.00 Partly Cloudy SCT250 80.1 66.9 64% 82 29.94 1013.9
11 07:53 NW 7 10.00 Partly Cloudy SCT250 77 68 79 73.9 74% 79 29.94 1013.8
11 06:53 W 3 10.00 A Few Clouds FEW250 73.9 70 88% 29.93 1013.4
11 05:53 Calm 10.00 A Few Clouds FEW250 75 71.1 88% 75 29.91 1012.9
11 04:53 W 3 10.00 Fair CLR 75.9 71.1 85% 76 29.91 1012.7
11 03:53 W 6 10.00 Fair CLR 77 71.1 82% 79 29.91 1012.7
11 02:53 W 6 10.00 Fair CLR 78.1 73.9 87% 81 29.91 1012.6
11 01:53 W 6 10.00 Fair CLR 79 75 89.1 79 88% 83 29.91 1012.8
11 00:53 W 9 10.00 Fair CLR 80.1 75 85% 85 29.91 1012.8
10 23:53 W 8 10.00 Fair CLR 81 75 82% 87 29.91 1012.6
10 22:53 W 8 10.00 Fair CLR 82 75 79% 89 29.91 1012.7
10 21:53 W 8 10.00 Fair CLR 82.9 75 77% 90 29.91 1012.7
10 20:53 SW 13 10.00 Partly Cloudy FEW048 SCT250 86 75 70% 95 29.9 1012.5
10 19:53 W 7 10.00 Mostly Cloudy SCT048 BKN250 89.1 73 93.9 89.1 59% 97 29.89 1012.2
10 18:53 SW 7 10.00 Mostly Cloudy SCT045 SCT060 BKN210 91 73 56% 100 29.88 1011.8
10 17:53 W 10 10.00 Mostly Cloudy SCT055 SCT070 BKN200 93 72 50% 101 29.89 1012.1
10 16:53 W 12 10.00 Mostly Cloudy FEW045TCU SCT060 SCT070 BKN200 93 73 52% 102 29.89 1012.0
10 15:53 NW 8 10.00 Mostly Cloudy SCT042 BKN060 BKN250 91.9 73 54% 101 29.89 1012.1
10 14:53 NW 8 10.00 Mostly Cloudy FEW043 SCT055 BKN250 93 72 50% 101 29.9 1012.4
10 13:53 W 12 10.00 Mostly Cloudy BKN042 BKN060 BKN250 91 73 93 81 56% 100 29.92 1013.0
10 12:53 W 9 10.00 Mostly Cloudy BKN036 BKN250 90 73.9 59% 99 29.94 1013.6
10 11:53 W 12 10.00 Mostly Cloudy BKN030 BKN250 91 75 59% 102 29.94 1013.7
10 10:53 NW 9 10.00 Mostly Cloudy SCT024 BKN250 88 75 66% 98 29.94 1013.9
10 09:53 W 13 10.00 Mostly Cloudy BKN017 BKN250 84.9 75.9 75% 94 29.96 1014.3
10 08:53 W 10 10.00 Mostly Cloudy BKN015 BKN250 82.9 75.9 79% 91 29.95 1014.3
10 07:53 W 8 10.00 Mostly Cloudy FEW015 FEW100 BKN250 81 75.9 81 78.1 85% 87 29.95 1014.1
10 06:53 SW 5 10.00 Mostly Cloudy FEW100 BKN250 78.1 75 90% 81 29.94 1013.9
10 05:53 SW 3 10.00 Partly Cloudy FEW025 SCT250 78.1 73.9 87% 81 29.94 1013.6
10 04:53 W 3 10.00 Fair CLR 78.1 73.9 87% 81 29.93 1013.4
10 03:53 SW 3 10.00 Fair CLR 78.1 75 90% 81 29.93 1013.3
10 02:53 W 5 10.00 Fair CLR 78.1 75 90% 81 29.93 1013.4
10 01:53 W 6 10.00 Fair CLR 79 75 82.9 79 88% 83 29.94 1013.8
10 00:53 Calm 10.00 Fair CLR 79 75 88% 83 29.95 1014.0
09 23:53 Calm 10.00 Mostly Cloudy FEW120 BKN200 80.1 75 85% 85 29.96 1014.5
09 22:53 SW 7 10.00 Mostly Cloudy FEW100 SCT150 BKN200 80.1 75 85% 85 29.97 1014.8
09 21:53 SW 9 10.00 Mostly Cloudy FEW120 SCT140 BKN170 80.1 75 85% 85 29.96 1014.5
09 20:53 SW 12 10.00 Mostly Cloudy SCT055 BKN075 BKN120 BKN140 80.1 75 85% 85 29.96 1014.3
09 19:53 S 14 G 24 10.00 Overcast SCT036 BKN048 OVC095 82.9 75.9 96.1 82.9 79% 91 29.95 1014.2
09 18:53 S 14 10.00 Mostly Cloudy SCT048 BKN070 BKN250 91 78.1 66% 106 29.93 1013.5
09 17:53 W 6 10.00 Partly Cloudy FEW046 SCT070 SCT250 95 73.9 51% 106 29.91 1012.7
09 16:53 Calm 10.00 Mostly Cloudy BKN045 BKN055 BKN250 95 73.9 51% 106 29.93 1013.3
09 15:53 SW 5 10.00 Mostly Cloudy SCT045 BKN070 BKN250 93.9 75 54% 106 29.93 1013.4
09 14:53 Vrbl 7 10.00 Mostly Cloudy SCT039 BKN050 BKN250 93 75 56% 104 29.96 1014.3
09 13:53 SW 5 10.00 Mostly Cloudy SCT035 BKN250 91 75 91.9 77 59% 102 29.98 1015.0
Date Time (edt) Wind (mph) Vis. (mi.) Weather Sky Cond. Air Dwpt Max. Min. Relative Humidity Wind Chill (°F) Heat Index (°F) altimeter (in) sea level (mb) 1 hr 3 hr 6 hr
6 hour
Temperature (ºF) Pressure Precipitation (in)